This is the latest recevied weather packets stored in our database for station/object KI5MKI. If no packets are shown the sender has not sent any weather packets the latest 10 day(s).
| Time | Temp. | Humidity | Pressure | Rain* | Wind** | Luminosity | Snow |
|---|---|---|---|---|---|---|---|
| 1777925023 | 25.56° C | 46% | 1010.9 hPa | 0 mm | - | 864 W/m² | - |
| 1777924719 | 25.56° C | 46% | 1010.9 hPa | 0 mm | - | 903 W/m² | - |
| 1777924415 | 25° C | 46% | 1011.1 hPa | 0 mm | - | 767 W/m² | - |
| 1777924112 | 25.56° C | 46% | 1011.3 hPa | 0 mm | - | 713 W/m² | - |
| 1777923808 | 25.56° C | 47% | 1011.4 hPa | 0 mm | - | 758 W/m² | - |
| 1777923504 | 25.56° C | 48% | 1011.5 hPa | 0 mm | - | 895 W/m² | - |
| 1777923202 | 25.56° C | 46% | 1011.6 hPa | 0 mm | - | 840 W/m² | - |
| 1777922900 | 25° C | 47% | 1011.6 hPa | 0 mm | - | 853 W/m² | - |
| 1777922598 | 25.56° C | 45% | 1011.6 hPa | 0 mm | - | 753 W/m² | - |
| 1777922296 | 25.56° C | 46% | 1011.7 hPa | 0 mm | - | 976 W/m² | - |
| 1777921993 | 25.56° C | 50% | 1011.7 hPa | 0 mm | - | 927 W/m² | - |
| 1777921689 | 25° C | 48% | 1011.9 hPa | 0 mm | - | 934 W/m² | - |
| 1777921385 | 25° C | 48% | 1012.1 hPa | 0 mm | - | 920 W/m² | - |
| 1777921082 | 24.44° C | 48% | 1011.9 hPa | 0 mm | - | 932 W/m² | - |
| 1777920779 | 24.44° C | 51% | 1012.2 hPa | 0 mm | - | 952 W/m² | - |
| 1777920474 | 24.44° C | 47% | 1012.1 hPa | 0 mm | - | 728 W/m² | - |
| 1777920170 | 24.44° C | 46% | 1012.1 hPa | 0 mm | - | 668 W/m² | - |
| 1777919867 | 24.44° C | 47% | 1012.3 hPa | 0 mm | - | 647 W/m² | - |
| 1777919563 | 24.44° C | 46% | 1012.4 hPa | 0 mm | - | 955 W/m² | - |
| 1777919262 | 24.44° C | 49% | 1012.4 hPa | 0 mm | - | 729 W/m² | - |
| 1777918958 | 23.89° C | 46% | 1012.5 hPa | 0 mm | - | 940 W/m² | - |
| 1777918656 | 23.89° C | 51% | 1012.7 hPa | 0 mm | - | 673 W/m² | - |
| 1777918353 | 23.89° C | 47% | 1012.7 hPa | 0 mm | - | 764 W/m² | - |
| 1777918052 | 23.89° C | 47% | 1012.8 hPa | 0 mm | - | 843 W/m² | - |
| 1777917751 | 23.89° C | 48% | 1012.8 hPa | 0 mm | - | 887 W/m² | - |
* Rain latest hour (hover to see other rain measurements)
** Current wind speed in m/s (hover to see current wind gust speed)